Location: Little Arabia
(41.4620°N, 81.7687°W)
Time: 19:11:46
(UTC+00:00)

Cosmos 2227 Rocket - Pass Details

Date: 29 October 2020
Orbit: 838 x 845 km, 71.0° (Epoch: 02 December)

Event Time Altitude Azimuth Distance (km) Brightness Sun altitude
Rises 23:40:24 0° 335° (NNW) 3,406 5.6 -14.6°
Reaches altitude 10° 23:42:51 10° 334° (NNW) 2,468 4.9 -15.1°
Maximum altitude 23:48:31 81° 249° (WSW) 857 2.3 -16.1°
Drops below altitude 10° 23:54:10 10° 162° (SSE) 2,457 4.5 -17.2°
Sets 23:56:36 0° 161° (SSE) 3,388 5.2 -17.7°
